Home > Weather > Hartford > Past weeks

Flag for USA Past Weather in Hartford, Connecticut, USA — Yesterday and Last 2 Weeks

Now
77 °F

Clear.


Feels Like: 79 °F
Forecast: 74 / 89 °F
Wind: 5 mph from South

Location: Hartford-Brainard Airport

Current Time: Aug 25, 2016 at 11:34:07 PM

Latest Report: Aug 25, 2016 at 10:53 PM


Visibility: 10 mi

Pressure: 29.98 "Hg

Humidity: 71%

Dew Point: 67 °F

Location of HartfordLocation

Past Weather in Hartford — Graph

°F

Hartford Temperature Yesterday

Maximum temperature yesterday: 88 °F (at 2:53 PM)
Minimum temperature yesterday: 64 °F (at 5:53 AM)
Average temperature yesterday: 76 °F

High & Low Weather Summary for the Past Weeks

 TemperatureHumidityPressure
High98 °F (Aug 13, 3:53 PM)93% (Aug 11, 4:53 AM)30.31 "Hg (Aug 11, 4:53 AM)
Low57 °F (Aug 23, 4:53 AM)31% (Aug 23, 3:53 PM)29.76 "Hg (Aug 21, 11:53 PM)
Average80 °F66%30.00 "Hg
* Reported Aug 10 9:53 PM — Aug 25 9:53 PM, Hartford, Weather by CustomWeather, © 2016

Note: Actual official high and low records may vary slightly from our data, if they occured in-between our weather recording intervals... More about our weather records

Advertising

Hartford Weather History for the Previous 24 Hours

Scroll right to see more
 ConditionsComfort  
Time TempWeatherWind HumidityBarometerVisibility
9:53 PM
Thu, Aug 25
79 °FOvercast.8 mph67%29.99 "Hg10 mi
8:53 PM79 °FPartly cloudy.8 mph65%30.00 "Hg10 mi
7:53 PM81 °FMostly cloudy.9 mph60%30.00 "Hg10 mi
6:53 PM82 °FOvercast.7 mph58%29.99 "Hg10 mi
5:53 PM83 °FSunny.13 mph57%29.99 "Hg10 mi
4:53 PM85 °FSunny.16 mph51%29.99 "Hg10 mi
3:53 PM86 °FSunny.16 mph49%30.00 "Hg10 mi
2:53 PM86 °FPassing clouds.14 mph51%30.01 "Hg10 mi
1:53 PM85 °FPassing clouds.10 mph53%30.03 "Hg10 mi
12:53 PM85 °FScattered clouds.16 mph53%30.05 "Hg10 mi
11:53 AM85 °FScattered clouds.12 mph53%30.06 "Hg10 mi
10:53 AM82 °FSunny.8 mph58%30.07 "Hg10 mi
9:53 AM80 °FSunny.12 mph60%30.09 "Hg10 mi
8:53 AM77 °FSunny.7 mph64%30.11 "Hg10 mi
7:53 AM73 °FSunny.7 mph76%30.12 "Hg10 mi
6:53 AM70 °FClear.7 mph84%30.11 "Hg10 mi
5:53 AM70 °FClear.6 mph84%30.11 "Hg10 mi
4:53 AM70 °FClear.7 mph84%30.11 "Hg10 mi
3:53 AM70 °FClear.6 mph84%30.11 "Hg10 mi
2:53 AM71 °FClear.5 mph81%30.11 "Hg10 mi
1:53 AM71 °FClear.6 mph81%30.12 "Hg10 mi
12:53 AM71 °FClear.5 mph81%30.14 "Hg10 mi
11:53 PM
Wed, Aug 24
73 °FClear.3 mph74%30.16 "Hg10 mi
Weather by CustomWeather, © 2016

See weather overviewHow to use our weather pages